FENGYUN 1C DEB, 31161

Orbit data source: Space-Track

FENGYUN 1C DEB, 31161 is space debris in SSO originally from a launch on Mon, 10 May 1999 UTC launched from the Taiyaun Space Center, China (TSC). Fengyun 1C debris stems from the Chinese weather satellite Fengyun-1C, which was intentionally destroyed by a Chinese anti-satellite missile in 2007. This event dramatically increased the amount of space debris, with thousands of trackable fragments posing hazards to satellites and human spaceflight. The Fengyun 1C debris cloud has become a focal point in discussions about space sustainability and the need for international regulations to prevent the creation of new debris.

Loading next visibility...
Identifier
31161, 1999-025BHP
Orbit
SSO
Country
Flag of CNCN / PRC
Related business
Manufacturer
Unknown
Mission
Spacecraft
Bus & Motor
Unknown
Mass
Unknown
Launch date (UTC)
1999-05-10 (26 years ago)
Launch vehicle
Unknown
Launch site
Taiyaun Space Center, China (TSC)
Object type
Payload
Rocket body
Debris
Shape & HBR
Unknown shape, 0.1 m
Radar Cross Section
Small (<0.1 m²)

Expand to show TLE details & history
Last TLE update: 19 hours ago

TLE from 19 hours ago
0 FENGYUN 1C DEB
1 31161U 99025BHP 25297.32567152  .00000610  00000-0  36691-3 0  9998
2 31161  98.7545 320.3215 0069654 128.7821 231.9599 14.09168071954066
Epoch: 2025-10-24T07:48Z
TLE epoch observation values (Epoch: 2025-10-24T07:48:58.019Z)
Latitude
-0.00002°
Longitude
170.10757°
Altitude
896.418 km
Speed
7.388 km/s
True Right ascension
21h 21m 17s
True Declination
0° 00' 00"
Sunlit
Object was in daylight at epoch
Visualization orbit readout
Latitude
Unknown
Longitude
Unknown
Altitude
Unknown
Speed
Unknown
Apparent Right ascension
Unknown
Apparent Declination
Unknown
Sunlit
N/A
Visualization observer readout
Local Sidereal Time
21:59:01
Azimuth
Unknown
Elevation
Unknown
Doppler factor
Unknown
Orbital elements
Apogee altitude
909.807 km
Perigee altitude
808.983 km
Semi-major axis
7,237.532 km
Eccentricity
0.00697
Inclination
98.7545°
RAAN
320.3215°
Arg. of periapsis
128.7821°
True anomaly
231.33464°
Mean anomaly
231.9599°
Eccentric anomaly
231.64693°
Mean motion
3.52499 °/min
Orbital period
102.13 mins
BSTAR
0.00036691
Loading maneuver chart data...
Computing Atmospheric mass density...

Documentation

Showing up to 5 results
|